www.pogodaiklimat.ru

Погода и климат >> Архив погоды >> Португалия >> Funchal (S.Catarina)


ПОГОДА в Funchal (S.Catarina)

  • Прогноз погоды в Funchal (S.Catarina)
  • Монитор погоды в Funchal (S.Catarina)
  • Климат города

АРХИВ ПОГОДЫ в Funchal (S.Catarina)

Время (UTC), дата Ветер
(напр.,м/с)
 
Видим.   Явления Облачность Т
(С)
Тd
(С)
f
(%)
Тe
(С)
Тes
(С)
Комфортность P
(гПа)
Po
(гПа)
Тmin
(С)
Tmax
(С)
R
(мм)
R24
(мм)
S
(см)
21 10.10 З 4-7
{7}
20 км 1/1 480 м
[Cu hum]
+21.8 +16.7 73 +26 +26 душно 1010.9 1004.2
00 11.10 ЮЗ 11 20 км 3/3 480 м
[Cu Sc]
+22.7 +17.8 74 +28 +28 душно 1011.3 1004.5
03 11.10 20 км 4/4 480 м
[Cu Sc Ci fib]
+22.7 +16.2 67 1012.0 1005.3
06 11.10 З 1 20 км {дождь} 5/5 400 м
[Cu Sc Ci fib]
+20.5 +18.0 86 +25 +25 комфорт 1013.1 1006.3 +20.0 0.5
09 11.10 20 км 9/8 400 м
[Cu Sc Ci fib]
+21.9 +19.4 86 1014.6 1007.9
12 11.10
{5}
20 км 8/8 400 м
[Cu Sc]
+24.0 +20.2 79 1015.4 1008.7
15 11.10 -6
{9}
20 км 4/4 400 м
[Cu Sc]
+25.7 +19.8 70 1014.8 1008.1
18 11.10 В 4
{6}
н/о н/о +23.9 +18.5 72 +28 +28 душно 1015.4 1008.7 +26.4
21 11.10 штиль 0 20 км 1/1 480 м
[Cu hum]
+22.7 +17.7 73 +28 +28 душно 1016.8 1010.1
00 12.10 С 2 20 км 1/1 400 м
[Cu hum]
+21.5 +17.4 77 +26 +26 душно 1017.4 1010.7
03 12.10 СВ 2 20 км 1/1 480 м
[Cu hum]
+21.7 +17.7 78 +26 +26 душно 1017.2 1010.5
06 12.10 З 4 20 км 1/1 400 м
[Cu hum]
+22.3 +17.4 74 +27 +27 душно 1017.1 1010.4 +20.7
09 12.10
{5}
20 км 3/3 400 м
[Cu Sc]
+24.4 +18.2 68 1018.5 1011.8
12 12.10 ЮЗ 12 20 км 3/3 400 м
[Cu Sc]
+24.8 +19.7 73 +30 +30 душно 1018.5 1011.8
15 12.10 ЮЗ 12 20 км 3/3 480 м
[Cu med, cong Ci fib]
+24.6 +20.8 79 +31 +31 очень
душно
1017.2 1010.5
18 12.10 ЮЗ 11 20 км 3/1 480 м
[Cu med, cong Ci fib]
+23.7 +19.1 75 +28 +28 душно 1016.2 1009.5 +25.3
21 12.10 ЮЗ 10 20 км 3/3 480 м
[Cu med, cong Ci fib]
+22.9 +18.7 77 +29 +29 очень
душно
1016.8 1010.1
00 13.10 ЮЗ 10
{17}
20 км 4/4 450 м
[Cu Sc Ci fib]
+22.6 +18.3 77 +28 +28 душно 1015.7 1009.0
03 13.10 ЮЗ 14 20 км 4/3 450 м
[Cu med, cong Ci fib]
+22.5 +18.7 79 +28 +28 душно 1013.5 1006.7
06 13.10 ЮЗ 11 8000 м слабый дождь 9/8 400 м
[Cu Sc Ac cuf Ci fib]
+22.8 +19.8 83 +29 +29 очень
душно
1012.5 1005.7 +22.4 0.2
09 13.10 ЮЗ 6 8000 м слабый ливневой дождь 9/6 210 м
[Cb calv Ac As Ci sp]
+23.3 +20.2 83 +31 +31 очень
душно
1011.5 1004.8
12 13.10 ЮЗ 3-8
{16}
15 км в посл. час ливневой дождь 4/3 400 м
[Cu med, cong Ac cuf Ci sp]
+27.7 +19.3 60 +33 +39 очень
душно
1011.5 1004.9 15
15 13.10 С 8-14
{14}
20 км 6/4 400 м
[Cu med, cong Ac cuf Ci fib]
+25.2 +18.6 67 +30 +31 душно 1012.2 1005.5
18 13.10 С 12
{20}
9000 м 8/6 400 м
[Cu med, cong Ac cuf Ci fib]
+21.2 +18.2 83 +25 +25 комфорт 1014.2 1007.5 +27.8 15
21 13.10 С 14 9000 м слабый ливневой дождь 6/5 400 м
[Cu med, cong Ac cuf Ci fib]
+20.1 +16.6 80 +22 +22 комфорт 1016.7 1009.9
00 14.10 СВ 10-16
{18}
9000 м слабый дождь {ливн. осадки} 8/5 400 м
[Cu med, cong Ac cuf Ci fib]
+19.3 +16.7 85 +20 +20 1018.4 1011.6 6
03 14.10 СВ 8-13
{15}
15 км в посл. час дождь 9/8 360 м
[Cu med, cong Ac cuf Ci fib]
+18.9 +14.5 76 +19 +19 1019.4 1012.5
06 14.10 СВ 8 20 км {дождь} 8/8 400 м
[Cu med, cong Ac cuf Ci fib]
+19.6 +14.1 71 +21 +21 комфорт 1019.8 1012.9 +18.4 13
09 14.10 СВ 10
{16}
20 км 5/5 450 м
[Cu Sc Ac trans Ci fib]
+20.3 +12.5 61 +22 +22 комфорт 1020.9 1014.1
12 14.10 СВ 8-12
{15}
20 км 6/6 450 м
[Cu Sc Ci fib]
+22.0 +11.4 51 +24 +25 комфорт 1021.3 1014.5
15 14.10 СВ 8
{13}
20 км 4/4 450 м
[Cu Sc]
+21.8 +12.9 57 +24 +25 комфорт 1020.3 1013.5
18 14.10 С 5
{10}
20 км 4/4 450 м
[Cu Sc]
+20.9 +11.4 55 +23 +23 комфорт 1020.5 1013.7 +22.7
21 14.10 С 4-8
{8}
20 км 1/1 480 м
[Cu hum]
+19.9 +11.9 60 +22 +22 комфорт 1021.3 1014.5
00 15.10 С 3-6
{7}
20 км 3/3 480 м
[Cu hum]
+19.7 +12.6 64 +22 +22 комфорт 1021.3 1014.5
03 15.10 С 5
{8}
20 км 1/1 480 м
[Cu hum]
+19.0 +12.4 66 +20 +20 1020.2 1013.4
06 15.10 С 4 20 км 1/1 480 м
[Cu hum]
+19.2 +12.0 63 +20 +20 1020.0 1013.1 +18.4
09 15.10 С 5-8
{11}
20 км 3/3 540 м
[Cu Sc]
+20.7 +13.3 63 +23 +24 комфорт 1021.0 1014.2
12 15.10 ЮЗ 6 20 км 3/3 540 м
[Cu Sc]
+22.6 +15.7 65 +27 +30 душно 1021.0 1014.2
15 15.10 Ю 3-6
{7}
20 км 3/3 540 м
[Cu Sc]
+23.4 +15.9 63 +28 +33 душно 1019.5 1012.8
18 15.10 В 2 20 км 1/1 540 м
[Cu Sc]
+22.0 +15.5 67 +26 +26 душно 1019.5 1012.7 +24.1
21 15.10 СЗ 3
{7}
20 км 1/1 480 м
[Cu hum]
+20.9 +15.6 72 +25 +25 комфорт 1019.8 1012.9
00 16.10 С 4-6
{6}
20 км 1/1 480 м
[Cu Sc]
+21.9 +14.2 62 +25 +25 комфорт 1019.6 1012.9
03 16.10 -5
{5}
20 км 5/5 480 м
[Cu Sc]
+21.4 +14.5 65 1018.9 1012.1
06 16.10 С 1 20 км 5/5 480 м
[Cu Sc]
+20.8 +15.1 70 +25 +25 комфорт 1019.1 1012.3 +20.4
09 16.10
{5}
20 км слабый дождь {ливн. осадки} 9/9 450 м
[Cu Sc]
+21.5 +17.3 77 1020.6 1013.8
12 16.10 С 10-15
{15}
20 км 6/5 450 м
[Cu Sc Ci fib]
+22.9 +14.6 59 +27 +27 душно 1021.0 1014.2
15 16.10 С 9
{14}
20 км 6/6 480 м
[Cu Sc Ci fib]
+23.1 +15.7 63 +27 +28 душно 1020.4 1013.6
18 16.10 СВ 4-8
{10}
20 км 4/4 480 м
[Cu Sc Ci fib]
+21.5 +14.5 64 +24 +25 комфорт 1021.0 1014.2 +23.9
21 16.10 С 7-14
{14}
20 км 1/1 480 м
[Cu hum]
+20.4 +13.6 65 +22 +22 комфорт 1021.7 1014.9
00 17.10 СВ 8-12
{13}
20 км 1/1 480 м
[Cu hum]
+20.6 +13.6 64 +23 +23 комфорт 1021.5 1014.6
03 17.10 С 6-9
{11}
20 км 3/3 480 м
[Cu Sc]
+20.4 +13.5 65 +22 +22 комфорт 1021.4 1014.5
06 17.10 СВ 8
{13}
20 км 3/3 540 м
[Cu Sc]
+20.8 +14.7 68 +23 +23 комфорт 1021.4 1014.5 +20.3
09 17.10 С 6-10
{11}
20 км 6/6 480 м
[Cu Sc]
+21.5 +15.0 66 +25 +25 комфорт 1022.8 1016.0
12 17.10 СВ 5-11
{11}
20 км 8/8 480 м
[Cu Sc]
+22.6 +16.0 66 +27 +28 душно 1023.3 1016.5
15 17.10 СВ 5-10
{11}
20 км 9/9 480 м
[Cu Sc]
+21.7 +17.4 77 +26 +27 душно 1022.1 1015.3

 

Местоположение метеостанции Funchal (S.Catarina) (Португалия): широта 32.68 долгота -16.76 высота над уровнем моря 49 м.

В архиве по умолчанию представлена погода в Funchal (S.Catarina) за последнюю неделю. Архивные данные за месяц целиком и за предыдущие месяцы, начиная с января 2011 года, Вы можете получить, выбрав интересующий диапазон дат из раскрывающегося списка и нажав кнопку "Ввод!".


*Определитесь, кто Вы:
робот инопланетянин человек

Внимание! Время в таблицах - всемирное. Для получения местного времени необходимо прибавить поправку, которая в Funchal (S.Catarina) равна 0 ч.

Смотрите также архив погоды в соседних городах и на ближайших метеорологических станциях:

Погода в Funchal (Португалия) (14 км)
Погода в Porto Santo (Португалия) (58 км)
Погода в La Palma (Канарские Острова) (461 км)
Погода в Tenerife (Канарские Острова) (470 км)
Погода в Sta. Cruz De Tenerife (Канарские Острова) (473 км)
Погода в Tenerife-Guimar (Канарские Острова) (486 км)
Погода в Izana (Канарские Острова) (488 км)
Погода в Lanzarote (Канарские Острова) (513 км)
Погода в Reina Sofia Airport (Канарские Острова) (515 км)
Погода в La Gomera (Канарские Острова) (519 км)

Пояснения к столбцам:

Ветер - указаны скорость ветра в м/с - средняя за 10 мин, порывы в срок и между сроками (в фигурных скобках) и направление, откуда дует ветер: С - северный, СВ - северо-восточный, В - восточный, ЮВ - юго-восточный, Ю - южный, ЮЗ - юго-западный, З - западный, СЗ - северо-западный.
Видимость - горизонтальная дальность видимости в метрах или километрах. При видимости от 1 до 10 км при отсутствии осадков обычно наблюдается дымка, при ухудшении видимости до 1 км и менее - туман. В сухую погоду видимость может ухудшаться дымом, пылью или мглою.
Явления - указаны атмосферные явления, наблюдавшиеся в срок или в последний час перед сроком; фигурными скобками обозначены явления, наблюдавшиеся между сроками (за 1-3 часа до срока); квадратными скобками обозначены град или гололедные отложения с указанием их диаметра в мм.
Облачность - указаны через наклонную черту общая и нижняя облачность в баллах и высота нижней границы облаков в метрах; квадратными скобками обозначены формы облаков: Ci - перистые, Cs - перисто-слоистые, Cc - перисто-кучевые, Ac - высококучевые, As - высокослоистые, Sc - слоисто-кучевые, Ns - слоисто-дождевые, Cu - кучевые, Cb - кучево-дождевые. Подробнее классификацию облаков см. в Атласе облаков (PDF).
T - Температура воздуха - температура, измеренная на высоте 2 м над землей.
Td - Температура точки росы - температура, при понижении до которой содержащийся в воздухе водяной пар достигнет насыщения.
f - Относительная влажность воздуха - влажноcть воздуха, измеренная на высоте 2 м над землей.
Te - Эффективная температура - температура, которую ощущает одетый по сезону человек в тени. Характеристика душности погоды. При расчете учитывается влияние влажности воздуха и скорости ветра на теплоощущения человека.
Tes - Эффективная температура на солнце - температура, которую ощущает человек, с поправкой на солнечный нагрев. Характеристика знойности погоды. Зависит от высоты солнца над горизонтом, облачности и скорости ветра. Ночью, в пасмурную погоду, а также при ветре 12 м/с и более поправка равна нулю.
P - Атмосферное давление - приведенное к уровню моря атмосферное давление.
Po - Атмосферное давление - измеренное на уровне метеостанции атмосферное давление.
Tmin - Минимальная температура - минимум температуры воздуха на высоте 2 м над землей.
Tmax - Максимальная температура - максимум температуры воздуха на высоте 2 м над землей.
R - Количество осадков - Количество выпавших осадков за период времени, мм. При наведении курсора мыши на число - период времени, за который выпало указанное количество осадков.
R24 - Количество осадков - Количество выпавших осадков за 24 часа, мм.
S - Снежный покров - Высота снежного покрова, см. При наведении курсора мыши на число - состояние снежного покрова и степень покрытия местности в баллах.